Regional Weather Roundup
Issued by NWS Memphis, TN

Home | Current Version | Previous Version | Text Only | Print | Product List | Glossary On
Versions: 1 2 3 4 5 6 7 8 9 10 11 12 13 14 15 16 17 18 19 20 21 22 23 24 25 26 27 28 29 30 31 32 33 34 35 36 37 38 39 40 41 42 43 44 45 46 47 48 49 50
000
ASUS44 KMEG 281810
RWRMEG
MEMPHIS CWA HOURLY WEATHER ROUNDUP
NATIONAL WEATHER SERVICE MEMPHIS TN
100 PM CDT TUE MAR 28 2017

...WEST TENNESSEE...

CITY           SKY/WX    TMP DP  RH WIND       PRES   REMARKS
MEMPHIS INTL   MOSUNNY   74  57  55 NE6       30.01F
6HR MIN TEMP:  60; 6HR MAX TEMP:  74; 6HR PCP: TRACE;

NWS MEMPHIS      N/A     73 N/A N/A MISG        N/A
JACKSON        MOSUNNY   69  57  65 NE5       30.03F
6HR MIN TEMP:  53; 6HR MAX TEMP:  69;

SOMERVILLE     SUNNY     70  57  64 VRB8      30.01F
DYERSBURG      PTSUNNY   67  56  67 NE9       30.05F
6HR MIN TEMP:  54; 6HR MAX TEMP:  67;

PARIS          CLOUDY    61  52  72 VRB3      30.05S


...EASTERN ARKANSAS...

CITY           SKY/WX    TMP DP  RH WIND       PRES   REMARKS
JONESBORO      PTSUNNY   64  56  75 NE12      30.05
6HR MIN TEMP:  54; 6HR MAX TEMP:  65;

WEST MEMPHIS   SUNNY     71  59  65 E6        30.00F
6HR MIN TEMP:  58; 6HR MAX TEMP:  71;

BATESVILLE     CLOUDY    66  55  68 E8        30.05F
6HR MIN TEMP:  55; 6HR MAX TEMP:  66;

NEWPORT          N/A     64  56  75 NE9       30.05
6HR MIN TEMP:  54; 6HR MAX TEMP:  64;

WALNUT RIDGE   CLOUDY    63  52  67 NE8       30.06S
6HR MIN TEMP:  54; 6HR MAX TEMP:  63;

BLYTHEVILLE    MOSUNNY   66  56  70 NE7       30.05F
6HR MIN TEMP:  54; 6HR MAX TEMP:  66;

NW BLYTHEVILLE PTSUNNY   64  54  68 N5        30.05F
SEARCY         CLOUDY    69  60  73 NE8       30.04F
6HR MIN TEMP:  55; 6HR MAX TEMP:  69;

STUTTGART      SUNNY     72  54  53 E8        30.01F
6HR MIN TEMP:  55; 6HR MAX TEMP:  72;

PINE BLUFF     SUNNY     74  60  61 SE6       29.99F
6HR MIN TEMP:  57; 6HR MAX TEMP:  74;

MONTICELLO     SUNNY     79  61  53 MISG      29.96F
6HR MIN TEMP:  58; 6HR MAX TEMP:  79;



...NORTH MISSISSIPPI...

CITY           SKY/WX    TMP DP  RH WIND       PRES   REMARKS
TUPELO         PTSUNNY   76  60  57 CALM      30.00S
6HR MIN TEMP:  60; 6HR MAX TEMP:  76;

OXFORD         CLOUDY    77  57  50 E3        30.01F
OLIVE BRANCH   MOSUNNY  N/A N/A N/A N6        30.01S
GREENWOOD      MOSUNNY   77  65  66 CALM      29.98F
6HR MIN TEMP:  67; 6HR MAX TEMP:  78;

COLUMBUS       MOSUNNY   78  66  65 CALM      29.98F
6HR MIN TEMP:  65; 6HR MAX TEMP:  78; 6HR PCP: TRACE;

STARKVILLE     PTSUNNY   77  64  65 CALM      30.00F
GOLDEN TRIANGL PTSUNNY   79  63  57 CALM      29.95F


...SOUTHEAST MISSOURI...

CITY           SKY/WX    TMP DP  RH WIND       PRES   REMARKS
KENNETT        CLOUDY    63  55  77 NE6G14    30.05S HAZE
WEST PLAINS    CLOUDY    61  51  70 E6        30.06F
6HR MIN TEMP:  53; 6HR MAX TEMP:  61;

POPLAR BLUFF   CLOUDY    61  53  75 VRB6      30.07S
6HR MIN TEMP:  54; 6HR MAX TEMP:  61;

CAPE GIRARDEAU CLOUDY    58  51  78 W7        30.08S
6HR MIN TEMP:  55; 6HR MAX TEMP:  58;



...NORTHWEST ALABAMA...

CITY           SKY/WX    TMP DP  RH WIND       PRES   REMARKS
MUSCLE SHOALS  CLOUDY    69  59  70 SW5       30.03F
6HR MIN TEMP:  60; 6HR MAX TEMP:  69;



...MIDDLE TENNESSEE...

CITY           SKY/WX    TMP DP  RH WIND       PRES   REMARKS
NASHVILLE      PTSUNNY   69  51  52 CALM      30.03S
6HR MIN TEMP:  56; 6HR MAX TEMP:  71;

CLARKSVILLE    CLOUDY    62  54  74 N8        30.04S
6HR MIN TEMP:  54; 6HR MAX TEMP:  62;

COLUMBIA       PTSUNNY   68  63  83 VRB6      30.01F


...WESTERN KENTUCKY...

CITY           SKY/WX    TMP DP  RH WIND       PRES   REMARKS
PADUCAH        CLOUDY    60  51  72 NW6       30.06S
6HR MIN TEMP:  56; 6HR MAX TEMP:  61;

FORT CAMPBELL  CLOUDY    61  57  88 NW6       30.04S
6HR MIN TEMP:  54; 6HR MAX TEMP:  61;



...CENTRAL ARKANSAS...

CITY           SKY/WX    TMP DP  RH WIND       PRES   REMARKS
LITTLE ROCK    PTSUNNY   68  59  73 SE10      30.01F
6HR MIN TEMP:  53; 6HR MAX TEMP:  71;



SKY/WX REPORTED AS FAIR MEANS FEW OR NO CLOUDS BELOW
12 THOUSAND FEET.




USA.gov is the U.S. government's official web portal to all federal, state and local government web resources and services.